Weather History for KHKS - April, 2014

Change the Weather History Date:

Thursday, April 10, 2014

  Actual Average (KJAN) Record (KJAN)
Temperature  
Mean Temperature 62 °F 63 °F  
Max Temperature 79 °F 75 °F 89 °F (1999)
Min Temperature 45 °F 51 °F 34 °F (1914)
Degree Days  
Heating Degree Days 3 5  
Month to date heating degree days 54  
Since 1 July heating degree days 2324  
Cooling Degree Days 0 2  
Month to date cooling degree days 20  
Year to date cooling degree days 57  
Growing Degree Days 12 (Base 50)    
Moisture  
Dew Point 43 °F    
Average Humidity 53    
Maximum Humidity 90    
Minimum Humidity 26    
Precipitation  
Precipitation 0.00 in 0.18 in 1.65 in (1919)
Month to date precipitation 1.78  
Year to date precipitation 16.55  
Sea Level Pressure  
Sea Level Pressure 30.14 in    
Wind  
Wind Speed 5 mph (South)    
Max Wind Speed 15 mph    
Max Gust Speed 22 mph    
Visibility 10 miles    
Events      
T = Trace of Precipitation, MM = Missing Value Source: NWS Daily Summary

Daily Weather History Graph

Daily Weather History Graph

Search for Another Location

Airport or City:

Trip Planner

Search our weather history database for the weather conditions in past years. The results will help you decide how hot, cold, wet, or windy it might be!

Date:

Astronomy

Apr. 10, 2014 Rise Set
Actual Time 6:37 AM CDT 7:27 PM CDT
Civil Twilight 6:12 AM CDT 7:52 PM CDT
Nautical Twilight 5:43 AM CDT 8:21 PM CDT
Astronomical Twilight 5:13 AM CDT 8:51 PM CDT
Moon 3:24 PM CDT (4/10) 3:45 AM CDT (4/10)
Length of Visible Light 13h 39m
Length of Day
12h 49m
Waxing Gibbous, 80% of the Moon is Illuminated
Apr 10
Waxing Gibbous
Apr 15
Full
Apr 22
Last Quarter
Apr 29
New
May 6
First Quarter

Hourly Weather History & Observations

Time (CDT) Temp. Dew Point Humidity Pressure Visibility Wind Dir Wind Speed Gust Speed Precip Events Conditions
12:53 AM 46.9 °F 43.0 °F 86% 30.18 in 10.0 mi Calm Calm - N/A   Clear
2:53 AM 46.9 °F 43.0 °F 86% 30.16 in 10.0 mi Calm Calm - N/A   Clear
3:53 AM 46.0 °F 43.0 °F 89% 30.16 in 10.0 mi Calm Calm - N/A   Clear
4:53 AM 46.0 °F 42.1 °F 86% 30.16 in 10.0 mi Calm Calm - N/A   Clear
5:53 AM 45.0 °F 42.1 °F 90% 30.18 in 10.0 mi Calm Calm - N/A   Clear
6:53 AM 46.9 °F 43.0 °F 86% 30.18 in 10.0 mi Calm Calm - N/A   Clear
7:53 AM 52.0 °F 44.1 °F 74% 30.19 in 10.0 mi SSE 4.6 mph - N/A   Clear
9:53 AM 64.9 °F 44.1 °F 47% 30.20 in 10.0 mi South 11.5 mph - N/A   Clear
10:53 AM 69.1 °F 42.1 °F 38% 30.21 in 10.0 mi SSW 10.4 mph - N/A   Clear
11:53 AM 73.0 °F 41.0 °F 31% 30.19 in 10.0 mi SSW 11.5 mph 21.9 mph N/A   Clear
12:53 PM 75.0 °F 42.1 °F 31% 30.17 in 10.0 mi SSW 11.5 mph 19.6 mph N/A   Clear
1:53 PM 77.0 °F 42.1 °F 29% 30.15 in 10.0 mi South 11.5 mph 19.6 mph N/A   Clear
2:53 PM 78.1 °F 41.0 °F 27% 30.12 in 10.0 mi South 5.8 mph 18.4 mph N/A   Clear
3:53 PM 79.0 °F 41.0 °F 26% 30.09 in 10.0 mi SSE 15.0 mph 21.9 mph N/A   Clear
4:53 PM 78.1 °F 41.0 °F 27% 30.07 in 10.0 mi South 11.5 mph 18.4 mph N/A   Clear
5:53 PM 75.9 °F 42.1 °F 30% 30.06 in 10.0 mi South 12.7 mph 21.9 mph N/A   Clear
6:53 PM 72.0 °F 42.1 °F 34% 30.06 in 10.0 mi South 10.4 mph - N/A   Clear
7:53 PM 69.1 °F 43.0 °F 39% 30.07 in 10.0 mi South 9.2 mph - N/A   Clear
8:53 PM 66.9 °F 44.1 °F 44% 30.09 in 10.0 mi South 11.5 mph - N/A   Clear
9:53 PM 64.9 °F 45.0 °F 48% 30.12 in 10.0 mi South 12.7 mph - N/A   Clear
10:53 PM 64.0 °F 46.9 °F 54% 30.12 in 10.0 mi South 15.0 mph - N/A   Clear
11:53 PM 62.1 °F 48.0 °F 60% 30.12 in 10.0 mi South 12.7 mph - N/A   Clear